�������l�o���
Date,Time,MP-1(��Sv/h),MP-2(��Sv/h),MP-3(��Sv/h),MP-4(��Sv/h),MP-5(��Sv/h),MP-6(��Sv/h),MP-7(��Sv/h),MP-8(��Sv/h),����,����(m/s),���J
2023/06/01,00:00,0.555,0.825,0.497,1.004,0.732,0.327,0.582,0.543,�k�k��,5.5,��
2023/06/01,00:10,0.554,0.826,0.498,1.005,0.732,0.328,0.580,0.543,�k�k��,5.7,��
2023/06/01,00:20,0.556,0.824,0.498,1.005,0.731,0.327,0.580,0.541,�k�k��,5.8,��
2023/06/01,00:30,0.555,0.828,0.499,1.002,0.730,0.327,0.580,0.544,�k��,5.2,��
2023/06/01,00:40,0.555,0.826,0.498,1.004,0.729,0.325,0.579,0.543,�k��,5.5,��
2023/06/01,00:50,0.555,0.825,0.497,1.004,0.732,0.326,0.580,0.543,�k��,5.4,��
2023/06/01,01:00,0.556,0.826,0.498,1.007,0.731,0.326,0.580,0.541,�k��,5.7,��
2023/06/01,01:10,0.553,0.825,0.498,1.005,0.731,0.327,0.580,0.541,�k��,4.9,��
2023/06/01,01:20,0.556,0.826,0.498,1.005,0.731,0.325,0.579,0.543,�k��,4.8,��
2023/06/01,01:30,0.556,0.824,0.496,1.003,0.730,0.326,0.581,0.542,�k��,4.5,��
2023/06/01,01:40,0.555,0.826,0.497,1.005,0.731,0.327,0.581,0.542,�k��,4.5,��
2023/06/01,01:50,0.555,0.824,0.498,1.004,0.732,0.327,0.581,0.542,�k��,4.1,��
2023/06/01,02:00,0.554,0.826,0.497,1.003,0.731,0.326,0.580,0.543,�k��,4.1,��
2023/06/01,02:10,0.555,0.825,0.497,1.004,0.730,0.326,0.580,0.542,�k�k��,3.5,��
2023/06/01,02:20,0.554,0.825,0.496,1.004,0.731,0.324,0.580,0.543,�k�k��,3.9,��
2023/06/01,02:30,0.556,0.826,0.496,1.005,0.730,0.326,0.581,0.542,�k�k��,3.9,��
2023/06/01,02:40,0.554,0.825,0.496,1.005,0.732,0.325,0.580,0.542,�k�k��,3.4,��
2023/06/01,02:50,0.554,0.825,0.497,1.004,0.731,0.327,0.579,0.542,�k��,2.8,��
2023/06/01,03:00,0.553,0.825,0.496,1.006,0.731,0.326,0.580,0.542,�k��,3.3,��
2023/06/01,03:10,0.553,0.824,0.497,1.003,0.732,0.326,0.579,0.542,�k��,3.5,��
2023/06/01,03:20,0.555,0.824,0.496,1.007,0.732,0.326,0.579,0.543,�k��,2.6,��
2023/06/01,03:30,0.553,0.826,0.496,1.006,0.730,0.325,0.580,0.543,�k�k��,2.6,��
2023/06/01,03:40,0.556,0.824,0.498,1.006,0.730,0.327,0.579,0.542,�k�k��,2.6,��
2023/06/01,03:50,0.554,0.825,0.496,1.005,0.731,0.325,0.580,0.543,�k�k��,1.7,��
2023/06/01,04:00,0.555,0.825,0.496,1.003,0.731,0.326,0.580,0.543,�k��,1.9,��
2023/06/01,04:10,0.553,0.823,0.496,1.005,0.732,0.326,0.579,0.542,�k�k��,2.3,��
2023/06/01,04:20,0.555,0.826,0.498,1.005,0.730,0.327,0.580,0.544,�k��,1.9,��
2023/06/01,04:30,0.553,0.824,0.497,1.006,0.731,0.325,0.579,0.541,�k�k��,2.2,��
2023/06/01,04:40,0.555,0.825,0.497,1.006,0.731,0.327,0.581,0.544,�k��,2.5,��
2023/06/01,04:50,0.555,0.824,0.496,1.006,0.730,0.326,0.580,0.542,�k��,2.3,��
2023/06/01,05:00,0.555,0.824,0.496,1.003,0.732,0.325,0.580,0.542,�k��,2.0,��
2023/06/01,05:10,0.555,0.826,0.496,1.005,0.731,0.326,0.580,0.542,�k��,2.0,��
2023/06/01,05:20,0.554,0.825,0.497,1.005,0.730,0.327,0.579,0.542,�k�k��,1.2,��
2023/06/01,05:30,0.555,0.823,0.498,1.006,0.730,0.326,0.578,0.541,�k��,0.9,��
2023/06/01,05:40,0.555,0.825,0.495,1.004,0.730,0.326,0.579,0.542,�k�k��,1.2,��
2023/06/01,05:50,0.556,0.825,0.499,1.006,0.732,0.327,0.580,0.542,�k�k��,0.9,��
2023/06/01,06:00,0.554,0.826,0.499,1.006,0.730,0.326,0.581,0.544,�k,1.1,��
2023/06/01,06:10,0.554,0.828,0.497,1.008,0.730,0.327,0.580,0.543,�k,0.6,��
2023/06/01,06:20,0.555,0.826,0.497,1.004,0.731,0.327,0.581,0.542,-,CALM,��
2023/06/01,06:30,0.557,0.826,0.497,1.005,0.730,0.326,0.581,0.543,-,CALM,��
2023/06/01,06:40,0.556,0.825,0.496,1.005,0.732,0.326,0.580,0.543,-,CALM,��
2023/06/01,06:50,0.556,0.823,0.499,1.005,0.730,0.326,0.582,0.543,-,CALM,��
2023/06/01,07:00,0.554,0.823,0.496,1.004,0.731,0.325,0.582,0.543,-,CALM,��
2023/06/01,07:10,0.555,0.823,0.497,1.006,0.730,0.325,0.581,0.543,-,CALM,��
2023/06/01,07:20,0.552,0.824,0.497,1.006,0.732,0.325,0.581,0.544,�쓌,0.9,��
2023/06/01,07:30,0.554,0.825,0.499,1.005,0.731,0.326,0.580,0.542,��,1.4,��
2023/06/01,07:40,0.554,0.826,0.497,1.005,0.732,0.327,0.580,0.540,��쓌,1.9,��
2023/06/01,07:50,0.554,0.824,0.498,1.007,0.732,0.326,0.579,0.541,�쓌,2.5,��
2023/06/01,08:00,0.554,0.823,0.499,1.008,0.731,0.326,0.579,0.541,�쓌,2.6,��
2023/06/01,08:10,0.555,0.822,0.496,1.008,0.728,0.324,0.579,0.539,�쓌,3.4,��
2023/06/01,08:20,0.555,0.821,0.496,1.005,0.731,0.325,0.579,0.540,��쓌,2.8,��
2023/06/01,08:30,0.553,0.825,0.498,1.005,0.732,0.326,0.577,0.538,��쓌,4.8,��
2023/06/01,08:40,0.554,0.823,0.497,1.006,0.730,0.325,0.576,0.540,��쓌,5.4,��
2023/06/01,08:50,0.555,0.827,0.497,1.006,0.730,0.325,0.578,0.539,��쓌,7.0,��
2023/06/01,09:00,0.556,0.823,0.496,1.008,0.731,0.326,0.580,0.540,��쓌,6.6,��
2023/06/01,09:10,0.554,0.823,0.498,1.009,0.733,0.325,0.577,0.538,��쓌,7.1,��
2023/06/01,09:20,0.556,0.824,0.499,1.008,0.733,0.326,0.577,0.539,��쓌,6.6,��
2023/06/01,09:30,0.555,0.826,0.497,1.007,0.728,0.324,0.579,0.540,��쓌,7.6,��
2023/06/01,09:40,0.554,0.824,0.498,1.007,0.730,0.326,0.579,0.542,��,8.3,��
2023/06/01,09:50,0.555,0.825,0.495,1.005,0.731,0.325,0.578,0.541,��쓌,7.9,��
2023/06/01,10:00,0.556,0.824,0.497,1.007,0.731,0.327,0.578,0.543,��쓌,11.6,��
2023/06/01,10:10,0.555,0.824,0.497,1.008,0.730,0.326,0.580,0.541,��쓌,11.7,��
2023/06/01,10:20,0.558,0.826,0.497,1.007,0.729,0.325,0.578,0.541,��쓌,12.4,��
2023/06/01,10:30,0.556,0.828,0.496,1.007,0.731,0.327,0.579,0.541,��쓌,11.6,��
2023/06/01,10:40,0.556,0.824,0.497,1.007,0.732,0.326,0.579,0.542,��쓌,9.8,��
2023/06/01,10:50,0.554,0.825,0.498,1.006,0.732,0.327,0.579,0.543,��쓌,11.6,��
2023/06/01,11:00,0.555,0.826,0.497,1.006,0.732,0.327,0.579,0.542,��,11.6,��
2023/06/01,11:10,0.556,0.827,0.497,1.005,0.732,0.327,0.578,0.543,��쓌,13.6,��
2023/06/01,11:20,0.556,0.825,0.498,1.004,0.732,0.326,0.579,0.542,��쓌,13.9,��
2023/06/01,11:30,0.554,0.827,0.497,1.005,0.734,0.326,0.578,0.542,��쓌,13.8,��
2023/06/01,11:40,0.554,0.826,0.498,1.005,0.733,0.326,0.579,0.541,��쓌,12.4,��
2023/06/01,11:50,0.557,0.826,0.499,1.006,0.734,0.326,0.577,0.541,��쓌,14.4,��
2023/06/01,12:00,0.558,0.828,0.499,1.003,0.734,0.326,0.579,0.541,��쓌,13.1,��
2023/06/01,12:10,0.557,0.828,0.498,1.004,0.734,0.326,0.579,0.540,��쓌,13.5,��
2023/06/01,12:20,0.559,0.829,0.499,1.008,0.731,0.327,0.578,0.542,��쓌,15.3,��
2023/06/01,12:30,0.556,0.828,0.498,1.007,0.734,0.326,0.578,0.543,��쓌,14.9,��
2023/06/01,12:40,0.557,0.827,0.500,1.007,0.734,0.326,0.578,0.541,��쓌,15.5,��
2023/06/01,12:50,0.557,0.827,0.499,1.006,0.735,0.327,0.578,0.544,��쓌,15.5,��
2023/06/01,13:00,0.559,0.829,0.498,1.008,0.732,0.326,0.576,0.542,��쓌,16.0,��
2023/06/01,13:10,0.559,0.828,0.499,1.007,0.733,0.327,0.577,0.541,��쓌,13.8,��
2023/06/01,13:20,0.555,0.828,0.497,1.010,0.733,0.325,0.578,0.542,��쓌,13.9,��
2023/06/01,13:30,0.556,0.827,0.498,1.008,0.735,0.328,0.578,0.542,��쓌,13.0,��
2023/06/01,13:40,0.556,0.827,0.500,1.008,0.735,0.328,0.578,0.544,��쓌,14.9,��
2023/06/01,13:50,0.556,0.827,0.499,1.008,0.733,0.327,0.576,0.543,��쓌,13.0,��
2023/06/01,14:00,0.556,0.826,0.498,1.008,0.734,0.329,0.578,0.541,��쓌,15.5,��
2023/06/01,14:10,0.556,0.829,0.499,1.008,0.734,0.327,0.578,0.543,��쓌,13.3,��
2023/06/01,14:20,0.558,0.827,0.499,1.007,0.735,0.327,0.578,0.542,��쓌,11.9,��
2023/06/01,14:30,0.557,0.826,0.498,1.007,0.735,0.325,0.577,0.543,��,12.7,��
2023/06/01,14:40,0.555,0.826,0.497,1.008,0.735,0.326,0.579,0.541,��,11.0,��
2023/06/01,14:50,0.557,0.828,0.498,1.008,0.736,0.328,0.577,0.543,��,12.8,��
2023/06/01,15:00,0.557,0.829,0.497,1.009,0.736,0.327,0.578,0.543,��,12.2,��
2023/06/01,15:10,0.558,0.827,0.500,1.007,0.734,0.326,0.579,0.541,��쓌,11.4,��
2023/06/01,15:20,0.556,0.828,0.498,1.008,0.734,0.327,0.577,0.543,��,11.6,��
2023/06/01,15:30,0.555,0.826,0.499,1.005,0.734,0.327,0.577,0.544,��,10.2,��
2023/06/01,15:40,0.558,0.829,0.499,1.006,0.736,0.326,0.579,0.542,��,10.3,��
2023/06/01,15:50,0.558,0.829,0.498,1.008,0.734,0.327,0.578,0.542,��쓌,11.3,��
2023/06/01,16:00,0.557,0.826,0.499,1.008,0.734,0.326,0.578,0.542,��쓌,10.3,��
2023/06/01,16:10,0.556,0.829,0.498,1.010,0.735,0.326,0.579,0.543,��쓌,9.2,��
2023/06/01,16:20,0.558,0.827,0.498,1.006,0.735,0.327,0.578,0.543,��,10.2,��
2023/06/01,16:30,0.558,0.827,0.498,1.010,0.734,0.327,0.577,0.544,��,8.0,��
2023/06/01,16:40,0.556,0.828,0.499,1.008,0.735,0.326,0.576,0.543,��,8.6,��
2023/06/01,16:50,0.557,0.829,0.497,1.009,0.734,0.327,0.577,0.543,��,8.5,��
2023/06/01,17:00,0.557,0.826,0.498,1.009,0.735,0.327,0.577,0.541,��,8.8,��
2023/06/01,17:10,0.557,0.828,0.498,1.010,0.732,0.326,0.578,0.542,��,9.1,��
2023/06/01,17:20,0.557,0.826,0.498,1.011,0.734,0.326,0.577,0.543,��,9.4,��
2023/06/01,17:30,0.557,0.828,0.500,1.012,0.736,0.326,0.578,0.543,��,10.2,��
2023/06/01,17:40,0.556,0.827,0.497,1.010,0.734,0.327,0.579,0.544,��,8.2,��
2023/06/01,17:50,0.557,0.828,0.499,1.013,0.736,0.327,0.578,0.542,��,8.6,��
2023/06/01,18:00,0.557,0.829,0.497,1.010,0.735,0.327,0.578,0.544,��,7.0,��
2023/06/01,18:10,0.556,0.826,0.499,1.011,0.735,0.327,0.578,0.543,��,9.5,��
2023/06/01,18:20,0.555,0.827,0.497,1.011,0.735,0.326,0.579,0.544,��,10.2,��
2023/06/01,18:30,0.558,0.827,0.499,1.010,0.735,0.326,0.578,0.545,��,9.5,��
2023/06/01,18:40,0.558,0.828,0.499,1.011,0.735,0.326,0.578,0.544,��,8.3,��
2023/06/01,18:50,0.556,0.830,0.499,1.013,0.734,0.327,0.582,0.543,��,8.8,��
2023/06/01,19:00,0.558,0.827,0.498,1.011,0.734,0.326,0.577,0.546,��,9.3,��
2023/06/01,19:10,0.556,0.829,0.499,1.013,0.734,0.326,0.578,0.546,��,8.8,��
2023/06/01,19:20,0.557,0.831,0.500,1.011,0.735,0.326,0.578,0.545,��,9.2,��
2023/06/01,19:30,0.557,0.830,0.500,1.013,0.735,0.327,0.578,0.545,��,8.3,��
2023/06/01,19:40,0.558,0.830,0.502,1.012,0.737,0.326,0.579,0.544,��,9.6,��
2023/06/01,19:50,0.558,0.829,0.500,1.011,0.736,0.325,0.579,0.546,��,9.9,��
2023/06/01,20:00,0.557,0.829,0.501,1.014,0.736,0.327,0.579,0.545,��,9.9,��
2023/06/01,20:10,0.558,0.830,0.501,1.011,0.735,0.326,0.578,0.545,��,9.4,��
2023/06/01,20:20,0.559,0.830,0.500,1.014,0.735,0.326,0.579,0.546,��,12.2,��
2023/06/01,20:30,0.558,0.829,0.499,1.012,0.736,0.325,0.579,0.544,��,9.5,��
2023/06/01,20:40,0.559,0.832,0.500,1.014,0.735,0.326,0.580,0.545,��,8.5,��
2023/06/01,20:50,0.560,0.830,0.503,1.011,0.734,0.327,0.578,0.546,��,11.7,��
2023/06/01,21:00,0.557,0.831,0.499,1.011,0.734,0.328,0.578,0.544,��,12.7,��
2023/06/01,21:10,0.558,0.831,0.501,1.012,0.736,0.327,0.580,0.545,��,12.0,��
2023/06/01,21:20,0.558,0.831,0.500,1.011,0.736,0.327,0.580,0.546,��,12.2,��
2023/06/01,21:30,0.559,0.831,0.501,1.012,0.736,0.326,0.579,0.546,��,11.9,��
2023/06/01,21:40,0.558,0.830,0.501,1.011,0.735,0.326,0.579,0.545,��,10.5,��
2023/06/01,21:50,0.557,0.832,0.502,1.013,0.734,0.326,0.578,0.544,��,7.6,��
2023/06/01,22:00,0.558,0.830,0.500,1.013,0.734,0.326,0.578,0.544,��,7.8,��
2023/06/01,22:10,0.560,0.830,0.501,1.012,0.735,0.327,0.580,0.545,��,8.4,��
2023/06/01,22:20,0.559,0.830,0.501,1.011,0.737,0.328,0.578,0.546,��,8.7,��
2023/06/01,22:30,0.558,0.830,0.501,1.014,0.737,0.326,0.578,0.545,��,8.5,��
2023/06/01,22:40,0.559,0.830,0.501,1.013,0.737,0.326,0.580,0.546,��,8.1,��
2023/06/01,22:50,0.558,0.829,0.500,1.011,0.737,0.328,0.579,0.545,��,8.2,��
2023/06/01,23:00,0.557,0.831,0.501,1.014,0.734,0.327,0.579,0.544,��,9.7,��
2023/06/01,23:10,0.560,0.829,0.500,1.012,0.735,0.327,0.580,0.543,��,8.5,��
2023/06/01,23:20,0.558,0.829,0.501,1.012,0.736,0.327,0.578,0.546,��,9.6,��
2023/06/01,23:30,0.558,0.828,0.501,1.013,0.737,0.328,0.579,0.544,��,10.8,��
2023/06/01,23:40,0.559,0.829,0.501,1.013,0.736,0.326,0.578,0.545,��,13.3,��
2023/06/01,23:50,0.558,0.828,0.500,1.011,0.736,0.327,0.579,0.545,��,11.6,��
